Regional Weather Roundup
Issued by NWS Charleston, SC

Current Version | Previous Version | Graphics & Text | Print | Product List | Glossary On
Versions: 1 2 3 4 5 6 7 8 9 10 11 12 13 14 15 16 17 18 19 20 21 22 23 24 25 26 27 28 29 30 31 32 33 34 35 36 37 38 39 40 41 42 43 44 45 46 47 48 49 50
607
ASUS42 KCHS 290428
RWRCHS

REGIONAL WEATHER ROUNDUP
NATIONAL WEATHER SERVICE CHARLESTON SC
1200 AM EDT SUN MAY 29 2016

NOTE: "FAIR" INDICATES FEW OR NO CLOUDS BELOW 12,000 FEET WITH NO
SIGNIFICANT WEATHER AND/OR OBSTRUCTIONS TO VISIBILITY.

NOT ALL STATIONS ARE QUALITY CONTROLLED. USE DATA WITH CAUTION...
ESPECIALLY DEWPOINT OBSERVATIONS.

SCZ027-030-031-034>040-042>050-290500-
...SOUTHEAST SOUTH CAROLINA...

CITY           SKY/WX    TMP DP  RH WIND       PRES   REMARKS
N CHARLESTON   LGT RAIN  70  68  93 N15       30.01F
WATERFRONT PRK   N/A     71  71 100 N13       29.99F
MOUNT PLEASANT CLOUDY    72  72 100 N3        30.01F FOG
JOHNS ISLAND   DRIZZLE   72  72 100 N10       30.01S
PINOPOLIS        N/A     73  72  94 NE16      29.97F
MONCKS CORNER  LGT RAIN  68  66  94 N6        30.03F
SUMMERVILLE    RAIN      70  70 100 N6        30.05S
BEAUFORT MCAS  RAIN      69  68  96 MISG      30.03F FOG
BEAUFORT ARPT  TSTM      70  68  94 N16       30.01F
HILTON HEAD IS HVY RAIN  70  70 100 N18G28    30.00F
WALTERBORO     CLOUDY    68  68 100 N8        30.05F
ALLENDALE      HVY RAIN  68  66  94 NE8G15    30.08R

...SOUTHERN MIDLANDS AND PEE DEE...

CITY           SKY/WX    TMP DP  RH WIND       PRES   REMARKS
GEORGETOWN     CLOUDY    72  70  94 NE7       30.04F
KINGSTREE      CLOUDY    70  68  94 N5        30.06F
ORANGEBURG     RAIN      69  65  86 N7        30.09S FOG
BARNWELL       LGT RAIN  70  70 100 NE6       30.10S
AIKEN          RAIN      66  64  94 CALM      30.13F
MANNING        RAIN      68  68 100 N5        30.06F
COLUMBIA       RAIN      72  68  87 NE3       30.09F
SUMTER         CLOUDY    70  68  92 NW8       30.07S
FLORENCE       CLOUDY    73  69  87 N8        30.09F
MYRTLE BEACH   CLOUDY    73  66  78 NE9       30.06F
N MYRTLE BEACH CLOUDY    73  71  93 NE8       30.05F

$$

GAZ063-065-086>088-099>101-113>116-118-119-134>141-150-290500-
...SOUTHEAST GEORGIA...

CITY           SKY/WX    TMP DP  RH WIND       PRES   REMARKS
SAVANNAH ARPT  RAIN      69  67  93 NW12      30.04R
HUNTER AAF     RAIN      70  70 100 W3        30.02R
FORT STEWART   CLOUDY    69  65  87 NW2       30.04R
STATESBORO     LGT RAIN  69  67  94 N3        30.08S
SYLVANIA       HVY RAIN  69  67  93 NE7       30.09R
CLAXTON        FAIR      71  65  83 W6        30.09R

...CSRA...CENTRAL AND FAR SOUTHEAST GEORGIA...

CITY           SKY/WX    TMP DP  RH WIND       PRES   REMARKS
THOMSON        CLOUDY    74  70  88 CALM      30.15S
AUGUSTA-BUSH   LGT RAIN  67  65  93 E3        30.08F
AUGUSTA-DANIEL LGT RAIN  70  63  78 E8        30.10F
SWAINSBORO     MOCLDY    68  64  88 CALM      30.11S
VIDALIA        CLOUDY    70  63  78 NE6       30.10S
EASTMAN        MOCLDY    73  66  78 E6        30.12S
HAZLEHURST     FAIR      73  65  74 CALM      30.08S
ALMA           CLOUDY    72  64  76 VRB3      30.06F
WAYCROSS       CLOUDY    70  66  88 NE5       30.07S
JESUP          FAIR      66  61  82 N6        30.08R
BAXLEY         MOCLDY    72  66  83 CALM      30.08F
BRUNSWICK      CLOUDY    73  70  88 NW5       30.06S
SAINT SIMONS   MOCLDY    71  68  90 NW6       30.05R

$$

SCZ027-028-034-036>038-045-046-048>050-GAZ119-141-290500-
...LAKE AND SUPPLEMENTAL COASTAL OBSERVATIONS...

STATION/POSITION TIME  TEMP    WIND        PRES    WAVE   SWELL
                       AIR SEA DIR/SP/G            HT/PER HT/PER/DIR
                 (UTC) (F)     (DEG/KT/KT) (MB)    (FT/S) (FT/S/D)
WINYAH BAY       0300   74      50/ 14     1016.0
LAKE MURRAY      0300   72      CALM  /  3 1019.3F
ACE BASIN NERRS  0300   69     350/  4     1017.0S
FORT PULASKI     0400   71 77  330/  9/ 13 1016.7R
SAPELO ISLAND    0400   72     320/ 10     1017.0S

$$

ANZ835-935-AMZ111-154-330-350-352-354-370-450-454-472-290500-
...C-MAN AND BUOY OBSERVATIONS...

STATION/POSITION TIME  TEMP    WIND        PRES    WAVE   SWELL
                       AIR SEA DIR/SP/G            HT/PER HT/PER/DIR
                 (UTC) (F)     (DEG/KT/KT) (MB)    (FT/S) (FT/S/D)
BUOY 41004       0350   76 78   80/ 14/ 16 1014.5R   8/ 8   5/ 8
BUOY 41008       0350   73 76  350/ 17/ 21 1015.8R   7/ 6
FOLLY BEACH CMAN 0400   73      30/ 18/ 21 1015.9F
CAPERS NEARSHORE 0408   75 75   50/ 19/ 25 1016.4F
FRIPP NEARSHORE  0408   71 76  360/ 25/ 31 1014.3F


STATION/POSITION TIME  TEMP    WIND        PRES    WAVE   SWELL
                       AIR SEA DIR/SP/G            HT/PER HT/PER/DIR
                 (UTC) (F)     (DEG/KT/KT) (MB)    (FT/S) (FT/S/D)
5E ST. MARYS GA  0401      78                N/A     6/ 8
FRYING PAN BUOY  0400   78 77  110/ 16/ 19 1016.6F
BUOY 41025       0350   78 78  140/ 14/ 16 1019.9F   5/ 9   3/110/ 9
CAPE LOOKOUT NC  0400   75     100/  9/  9 1019.1F
BUOY 41002       0350   75 75  130/ 16/ 17 1018.7R   5/ 6
BUOY 41010       0320   78 79  200/  6/  8 1017.0R
ST AUGUSTINE FL  0400   75 79  360/ 13/ 14 1018.1R


$$




USA.gov is the U.S. government's official web portal to all federal, state and local government web resources and services.